Meadow Lake, CO

7:17 PM MST on November 19, 2017 (GMT -0700)
Meadow Lake

Weather History for KFLY - September, 2012

Change the Weather History Date:

Saturday, September 15, 2012

  Actual Average (KCOS) Record (KCOS)
Temperature  
Mean Temperature 58 °F -  
Max Temperature 77 °F 73 °F 92 °F (1990)
Min Temperature 40 °F 47 °F 29 °F (1916)
Degree Days  
Heating Degree Days 6    
Growing Degree Days 8 (Base 50)    
Moisture  
Dew Point 34 °F    
Average Humidity 47    
Maximum Humidity 84    
Minimum Humidity 19    
Precipitation  
Precipitation 0.00 in - - ()
Sea Level Pressure  
Sea Level Pressure 30.35 in    
Wind  
Wind Speed 7 mph (SW)    
Max Wind Speed 14 mph    
Max Gust Speed 22 mph    
Visibility 10 miles    
Events      
Averages and records for this station are not official NWS values.
T = Trace of Precipitation, MM = Missing Value Source: NWS Daily Summary

Daily Weather History Graph

Daily Weather History Graph

Search for Another Location

Airport or City:

Trip Planner

Search our weather history database for the weather conditions in past years. The results will help you decide how hot, cold, wet, or windy it might be!

Date:

Astronomy

Sep. 15, 2012 Rise Set
Actual Time 6:40 AM MDT 7:05 PM MDT
Civil Twilight 6:13 AM MDT 7:32 PM MDT
Nautical Twilight 5:41 AM MDT 8:03 PM MDT
Astronomical Twilight 5:09 AM MDT 8:35 PM MDT
Moon 6:13 AM MDT (9/15) 6:37 PM MDT (9/15)
Length of Visible Light 13h 19m
Length of Day
12h 25m
Waning Crescent, 0% of the Moon is Illuminated
Sep 15
Waning Crescent
Sep 15
New
Sep 22
First Quarter
Sep 29
Full
Oct 8
Last Quarter

Hourly Weather History & Observations

Time (MDT) Temp. Windchill Dew Point Humidity Pressure Visibility Wind Dir Wind Speed Gust Speed Precip Events Conditions
12:13 AM 48.2 °F - 37.9 °F 68% 30.45 in 10.0 mi WSW 4.6 mph - N/A   Clear
12:33 AM 46.8 °F - 37.6 °F 70% 30.44 in 10.0 mi WSW 4.6 mph - N/A   Clear
12:53 AM 46.8 °F - 37.4 °F 70% 30.44 in 10.0 mi WSW 4.6 mph - N/A   Clear
1:13 AM 44.2 °F 41.8 °F 37.4 °F 77% 30.43 in 10.0 mi WSW 4.6 mph - N/A   Clear
1:33 AM 43.9 °F 40.5 °F 37.0 °F 77% 30.43 in 10.0 mi West 5.8 mph - N/A   Clear
1:53 AM 43.7 °F 40.3 °F 36.9 °F 77% 30.42 in 10.0 mi West 5.8 mph - N/A   Clear
2:13 AM 43.7 °F 40.3 °F 36.7 °F 76% 30.42 in 10.0 mi West 5.8 mph - N/A   Clear
2:33 AM 43.2 °F 39.7 °F 36.5 °F 77% 30.41 in 10.0 mi West 5.8 mph - N/A   Clear
2:53 AM 42.4 °F 37.5 °F 35.8 °F 77% 30.40 in 10.0 mi West 8.1 mph - N/A   Clear
3:13 AM 42.1 °F 38.4 °F 35.8 °F 78% 30.40 in 10.0 mi West 5.8 mph - N/A   Clear
3:33 AM 42.1 °F 36.1 °F 35.6 °F 78% 30.39 in 10.0 mi West 10.4 mph - N/A   Clear
3:53 AM 41.2 °F 35.5 °F 35.8 °F 81% 30.40 in 10.0 mi West 9.2 mph - N/A   Clear
4:13 AM 41.4 °F 35.2 °F 35.2 °F 79% 30.39 in 10.0 mi West 10.4 mph - N/A   Clear
4:33 AM 40.5 °F 33.6 °F 35.2 °F 82% 30.38 in 10.0 mi West 11.5 mph - N/A   Clear
4:53 AM 40.1 °F 34.1 °F 35.6 °F 84% 30.38 in 10.0 mi WNW 9.2 mph - N/A   Clear
5:13 AM 41.5 °F 37.1 °F 35.8 °F 80% 30.38 in 10.0 mi WNW 6.9 mph - N/A   Clear
5:33 AM 41.4 °F - 35.8 °F 81% 30.38 in 10.0 mi Calm Calm - N/A   Clear
5:53 AM 41.4 °F - 35.6 °F 80% 30.38 in 10.0 mi Calm Calm - N/A   Clear
6:13 AM 41.5 °F 39.6 °F 35.6 °F 79% 30.38 in 10.0 mi NW 3.5 mph - N/A   Clear
6:33 AM 40.6 °F 38.6 °F 34.7 °F 79% 30.38 in 10.0 mi WSW 3.5 mph - N/A   Clear
6:53 AM 42.8 °F 39.3 °F 34.7 °F 73% 30.38 in 10.0 mi WSW 5.8 mph - N/A   Clear
7:13 AM 44.1 °F 41.5 °F 36.5 °F 75% 30.38 in 10.0 mi WSW 4.6 mph - N/A   Clear
7:33 AM 46.6 °F - 38.3 °F 73% 30.38 in 10.0 mi West 11.5 mph - N/A   Clear
7:53 AM 51.4 °F - 39.2 °F 63% 30.38 in 10.0 mi Calm Calm - N/A   Clear
8:13 AM 55.0 °F - 39.0 °F 55% 30.38 in 10.0 mi Calm Calm - N/A   Clear
8:33 AM 57.6 °F - 37.0 °F 46% 30.38 in 10.0 mi WSW 4.6 mph - N/A   Clear
8:53 AM 59.0 °F - 35.2 °F 41% 30.38 in 10.0 mi SW 8.1 mph - N/A   Clear
9:13 AM 60.1 °F - 33.8 °F 37% 30.38 in 10.0 mi SW 8.1 mph - N/A   Clear
9:33 AM 61.7 °F - 32.7 °F 34% 30.38 in 10.0 mi SSW 9.2 mph - N/A   Clear
9:53 AM 62.8 °F - 31.8 °F 31% 30.38 in 10.0 mi South 6.9 mph - N/A   Clear
10:13 AM 63.5 °F - 32.0 °F 31% 30.38 in 10.0 mi South 4.6 mph - N/A   Clear
10:32 AM 64.9 °F - 32.7 °F 30% 30.37 in 10.0 mi SSW 6.9 mph - N/A   Clear
10:52 AM 66.7 °F - 32.4 °F 28% 30.37 in 10.0 mi South 6.9 mph - N/A   Clear
11:12 AM 68.7 °F - 32.4 °F 26% 30.37 in 10.0 mi SE 6.9 mph - N/A   Clear
11:32 AM 70.2 °F - 32.5 °F 25% 30.37 in 10.0 mi SSE 6.9 mph - N/A   Clear
11:52 AM 70.7 °F - 32.9 °F 25% 30.36 in 10.0 mi South 10.4 mph 18.4 mph N/A   Clear
12:12 PM 71.4 °F - 33.6 °F 25% 30.36 in 10.0 mi SSE 9.2 mph 16.1 mph N/A   Clear
12:52 PM 73.6 °F - 33.6 °F 23% 30.35 in 10.0 mi SSE 9.2 mph 16.1 mph N/A   Clear
1:12 PM 75.2 °F - 33.1 °F 21% 30.34 in 10.0 mi SE 11.5 mph - N/A   Clear
1:32 PM 75.9 °F - 33.6 °F 21% 30.34 in 10.0 mi South 9.2 mph 16.1 mph N/A   Clear
1:52 PM 75.9 °F - 32.2 °F 20% 30.33 in 10.0 mi South 10.4 mph - N/A   Clear
2:12 PM 76.5 °F - 33.1 °F 21% 30.33 in 10.0 mi SSW 10.4 mph 21.9 mph N/A   Clear
2:32 PM 77.0 °F - 32.2 °F 19% 30.32 in 10.0 mi South 11.5 mph 17.3 mph N/A   Clear
2:52 PM 77.4 °F - 31.6 °F 19% 30.31 in 10.0 mi South 11.5 mph - N/A   Clear
3:12 PM 76.5 °F - 31.8 °F 20% 30.30 in 10.0 mi South 11.5 mph 17.3 mph N/A   Clear
3:32 PM 75.9 °F - 32.2 °F 20% 30.30 in 10.0 mi South 12.7 mph 18.4 mph N/A   Clear
3:52 PM 76.5 °F - 31.8 °F 20% 30.30 in 10.0 mi South 13.8 mph 19.6 mph N/A   Clear
4:12 PM 76.6 °F - 31.6 °F 19% 30.29 in 10.0 mi South 11.5 mph 19.6 mph N/A   Clear
4:32 PM 75.4 °F - 31.3 °F 20% 30.29 in 10.0 mi South 11.5 mph 19.6 mph N/A   Clear
4:52 PM 74.8 °F - 31.5 °F 20% 30.29 in 10.0 mi South 12.7 mph 19.6 mph N/A   Clear
5:12 PM 73.8 °F - 31.1 °F 21% 30.28 in 10.0 mi South 10.4 mph 17.3 mph N/A   Clear
5:32 PM 72.7 °F - 30.9 °F 21% 30.28 in 10.0 mi South 11.5 mph - N/A   Clear
5:52 PM 71.6 °F - 30.9 °F 22% 30.28 in 10.0 mi South 8.1 mph 18.4 mph N/A   Clear
6:12 PM 70.2 °F - 31.3 °F 24% 30.28 in 10.0 mi South 9.2 mph - N/A   Clear
6:32 PM 67.3 °F - 32.0 °F 27% 30.28 in 10.0 mi South 8.1 mph - N/A   Clear
6:52 PM 62.8 °F - 32.7 °F 32% 30.28 in 10.0 mi South 8.1 mph - N/A   Clear
7:12 PM 60.6 °F - 33.6 °F 36% 30.28 in 10.0 mi SSW 6.9 mph - N/A   Clear
7:32 PM 60.3 °F - 32.2 °F 35% 30.28 in 10.0 mi SSW 4.6 mph - N/A   Clear
7:52 PM 59.0 °F - 32.4 °F 37% 30.30 in 10.0 mi SSW 12.7 mph 16.1 mph N/A   Clear
8:12 PM 59.0 °F - 31.8 °F 36% 30.30 in 10.0 mi SSW 6.9 mph 17.3 mph N/A   Clear
8:32 PM 58.3 °F - 32.0 °F 37% 30.30 in 10.0 mi SSW 12.7 mph 17.3 mph N/A   Clear
8:53 PM 57.4 °F - 31.8 °F 38% 30.31 in 10.0 mi Calm Calm - N/A   Clear
9:12 PM 56.7 °F - 30.7 °F 37% 30.31 in 10.0 mi NW 3.5 mph - N/A   Clear
9:32 PM 55.4 °F - 33.6 °F 44% 30.31 in 10.0 mi Calm Calm - N/A   Clear
9:52 PM 54.3 °F - 32.0 °F 43% 30.31 in 10.0 mi WSW 5.8 mph - N/A   Clear
10:13 PM 54.3 °F - 32.0 °F 43% 30.30 in 10.0 mi WSW 6.9 mph - N/A   Clear
10:32 PM 53.2 °F - 32.0 °F 44% 30.30 in 10.0 mi West 6.9 mph - N/A   Clear
10:53 PM 51.1 °F - 33.4 °F 51% 30.30 in 10.0 mi WSW 4.6 mph - N/A   Clear
11:13 PM 49.3 °F - 34.7 °F 57% 30.30 in 10.0 mi WNW 8.1 mph - N/A   Clear
11:33 PM 49.8 °F - 34.0 °F 55% 30.30 in 10.0 mi NW 3.5 mph - N/A   Clear
11:53 PM 49.6 °F - 33.8 °F 54% 30.29 in 10.0 mi NW 4.6 mph - N/A   Clear